sat.trackr.live / text

‹ back to catalog

STARLINK-31578

NORAD 59321 · 2024-057B

PAYLOAD ACTIVE UNKNOWN

§ Identity

Operator
Country
US
Launch date
2024-03-25
Launch site
AFETR
Launch vehicle
Mass (kg)
RCS (m²)

Purposes: comms

External: N2YO · Heavens-Above · Gunter

§ Orbital elements

Epoch: 2026-05-25T04:31:12.010080Z

Period
94.27 min
Inclination
43.0028°
Eccentricity
0.0001281
Mean motion
15.27580664 rev/d
Perigee alt
482.2 km
Apogee alt
483.9 km
Semi-major
6,861.2 km
B*
7.3578e-5
RAAN
114.6076°
Arg perigee
269.5729°
Mean anomaly
90.4975°
Rev number
12,154

§ Raw data

STARLINK-315781 59321U 24057B   26145.18833345  .00001763  00000+0  73578-4 0  99912 59321  43.0028 114.6076 0001281 269.5729  90.4975 15.27580664121547

JSON: /api/v1/satellites/59321 · /tle

For live sub-satellite position, see the globe view (requires WebGL).

§ Visibility from observer

Set your observer location to see the next 7 days of passes ≥ 10°. The values pass through the URL so the page stays shareable.

No JS? Fill the form by hand. The geolocation button needs JavaScript.